(804) Hispania
ephemeris date magn radius delta ra dec elong phase
Opposition7 Jun 202611.92.681 AU1.724 AU16h47m-46°57'155.6°9.0°
Today21 Jun 202612.02.662 AU1.725 AU16h31m-46°20'151.4°10.5°
(804) Hispania - 2026-06-21
astro.vanbuitenen.nl


 
-1 year
-1 month
-1 day
Now
+1 day
+1 month
+1 year

The interactive orbit chart above shows the body's path through the solar system and its position at the given date. Green and blue lines are shown perpendicular to the ecliptic plane: Green if the path is above the ecliptic plane, blue if it is below. (Left-click and drag to rotate the view; Right-click and drag to move the view; Use scroll wheel to zoom in our out.)

The orbital elements of Hispania are:

            e (Eccentricity)                : 0.1415579
            a (Semimajor axis)              : 2.8376031
            i (Inclination)                 : 15.38610
            Ω (Longitude of ascending node) : 347.53685
            ω (Argument of perihelion)      : 343.76985
            M (Mean anomaly)                : 300.69557
            Epoch                           : 2026 Jun 09

            L (Longitude of perihelion)     : 331.85930
            B (Latitude of perihelion)      : -4.25276
            P (Orbital period in years)     : 4.78            
        

The light curve chart below shows the estimated development of the minor planet's magnitude.


The all-sky chart below shows the path of the minor planet over the same period as the light curve. The current position is marked yellow.





The following chart shows the path of the minor planet in the next few days. The field of view is optimized for (~10x50) binoculars and finderscopes.




Ephemerides:
Date       Time       RA (2000)    DEC (2000)    delta   radius  elong  phase   PA    magn
2026-06-21 00:00 UT   16 31 53.0   -46 20 24     1.725    2.662  151.4   10.5    44   12.0 
2026-06-21 07:53 UT   16 31 32.4   -46 18 57     1.726    2.662  151.2   10.6    45   12.0 
2026-06-22 00:00 UT   16 30 50.8   -46 15 54     1.727    2.661  150.8   10.7    46   12.0 
2026-06-23 00:00 UT   16 29 50.0   -46 11 12     1.729    2.660  150.2   10.9    48   12.0 
2026-06-24 00:00 UT   16 28 50.7   -46 06 18     1.731    2.658  149.6   11.2    50   12.0 
2026-06-25 00:00 UT   16 27 52.9   -46 01 13     1.734    2.657  148.9   11.4    52   12.0 
2026-06-26 00:00 UT   16 26 56.8   -45 55 57     1.737    2.655  148.2   11.6    54   12.0 
2026-06-27 00:00 UT   16 26 02.4   -45 50 30     1.740    2.654  147.6   11.9    56   12.0 
2026-06-28 00:00 UT   16 25 09.6   -45 44 54     1.743    2.653  146.8   12.1    58   12.0 
2026-06-29 00:00 UT   16 24 18.7   -45 39 08     1.746    2.651  146.1   12.3    59   12.0 
2026-06-30 00:00 UT   16 23 29.6   -45 33 13     1.750    2.650  145.4   12.6    61   12.1 
2026-07-01 00:00 UT   16 22 42.4   -45 27 09     1.754    2.649  144.6   12.8    62   12.1 
2026-07-02 00:00 UT   16 21 57.0   -45 20 58     1.758    2.647  143.8   13.1    64   12.1 
2026-07-03 00:00 UT   16 21 13.7   -45 14 38     1.762    2.646  143.1   13.3    65   12.1 
2026-07-04 00:00 UT   16 20 32.3   -45 08 12     1.766    2.644  142.3   13.6    67   12.1 
2026-07-05 00:00 UT   16 19 52.9   -45 01 39     1.771    2.643  141.5   13.9    68   12.1 
2026-07-06 00:00 UT   16 19 15.6   -44 55 01     1.776    2.642  140.7   14.1    69   12.1 
2026-07-07 00:00 UT   16 18 40.3   -44 48 16     1.781    2.640  139.9   14.4    70   12.2 
2026-07-08 00:00 UT   16 18 07.2   -44 41 27     1.786    2.639  139.0   14.6    71   12.2 
2026-07-09 00:00 UT   16 17 36.1   -44 34 32     1.791    2.638  138.2   14.9    73   12.2 
2026-07-10 00:00 UT   16 17 07.2   -44 27 34     1.797    2.636  137.4   15.1    74   12.2 
2026-07-11 00:00 UT   16 16 40.5   -44 20 32     1.802    2.635  136.6   15.4    75   12.2 
2026-07-12 00:00 UT   16 16 15.9   -44 13 26     1.808    2.634  135.7   15.6    76   12.2 
2026-07-13 00:00 UT   16 15 53.6   -44 06 18     1.814    2.632  134.9   15.9    77   12.2 
2026-07-14 00:00 UT   16 15 33.4   -43 59 07     1.821    2.631  134.1   16.1    77   12.3 
2026-07-15 00:00 UT   16 15 15.4   -43 51 54     1.827    2.630  133.2   16.4    78   12.3 
2026-07-16 00:00 UT   16 14 59.7   -43 44 40     1.834    2.628  132.4   16.6    79   12.3 
2026-07-17 00:00 UT   16 14 46.1   -43 37 24     1.841    2.627  131.5   16.8    80   12.3 
2026-07-18 00:00 UT   16 14 34.8   -43 30 08     1.847    2.626  130.7   17.1    81   12.3 
2026-07-19 00:00 UT   16 14 25.7   -43 22 51     1.855    2.624  129.8   17.3    81   12.3 
2026-07-20 00:00 UT   16 14 18.8   -43 15 34     1.862    2.623  129.0   17.5    82   12.3 
2026-07-21 00:00 UT   16 14 14.1   -43 08 18     1.869    2.622  128.2   17.7    83   12.4 


    Terminology:
            
    delta:  distance between minor planet and earth in AU
    radius: distance between minor planet and sun in AU
    magn:   magnitude (brightness) estimate    
    ra:     right ascension in hours (24h = 360deg)
    dec:    declination in degrees
    elong:  elongation in degrees (angle sun-earth-minor planet)    
    phase:  phase angle in degrees (angle sun-minor planet-earth)        
    AU:     Astronomical Unit (mean distance between earth and sun: 149597870.7 km
    

Orbital elements provided by the MPC (Minor Planet Center).
Calculations by a modified version of AAPlus, a C# implementation of the AA+ project by PJ Naughter from the algorithms presented in the book "Astronomical Algorithms" by Jean Meeus.
NGC2000 dso catalog and star labels from VizieR as provided by the Strasbourg astronomical Data Center.
Tycho2 catalog from the ESO archive.